Location: Johnson City
(36.3130°N, 82.3540°W)
Time: 02:33:51
(UTC-04:00)

Tiangong 2 - Visible Passes

Search period start: 21 June 2018 00:00
Search period end: 01 July 2018 00:00
Orbit: 291 x 297 km, 42.8° (Epoch: 20 June)

Date Brightness Start Highest point End Pass type
(mag) Time Alt. Az. Time Alt. Az. Time Alt. Az.
25 Jun 3.2 04:40:07 12° SE 04:40:10 12° SE 04:41:10 10° ESE visible
26 Jun 2.0 04:45:30 24° SSE 04:45:45 25° SSE 04:47:56 10° E visible
27 Jun 0.6 04:50:45 42° SSW 04:51:20 59° SSE 04:53:51 10° ENE visible
28 Jun 0.8 04:55:53 30° W 04:56:55 61° NNW 04:59:26 10° ENE visible
29 Jun 1.9 05:00:53 17° WNW 05:02:27 33° NNW 05:04:50 10° NE visible
30 Jun 3.9 03:35:29 12° ENE 03:35:29 12° ENE 03:35:41 10° ENE visible
30 Jun 2.6 05:05:52 10° WNW 05:08:00 23° NNW 05:10:08 10° NE visible
